Date_and_time,latitude,longitude,wind_speed,RelWindDirFrom,WindDirFrom,air_pressure,air_temperature,relative_humidity,Temp,platform_speed_wrt_ground,air_pressure_at_mean_sea_level,platform_orientation
2018-06-01 00:00,50.6304416666667,-96.9807633333333,15.9,18.1,36,984.75,14.8,85,18.59,0.0,1011.11,311.9
2018-06-01 00:10,50.6304433333333,-96.9807633333333,16.7,19.8,39,984.47,15.0,85,18.58,0.0,1010.81,311.9
2018-06-01 00:20,50.6304433333333,-96.9807616666667,17.0,19.5,40,984.55,15.0,85,18.57,0.0,1010.89,311.9
2018-06-01 00:30,50.6304433333333,-96.9807616666667,18.0,21.0,40,984.62,15.0,86,18.57,0.0,1010.96,311.9
2018-06-01 00:40,50.6304433333333,-96.9807616666667,17.2,20.2,41,984.69,14.8,87,18.57,0.0,1011.04,311.9
2018-06-01 00:50,50.63043,-96.9807633333333,16.6,19.6,45,984.84,14.8,89,18.56,0.0,1011.19,311.9
2018-06-01 01:00,50.630465,-96.9807933333333,16.5,20.0,57,985.03,14.8,88,18.55,0.0,1011.38,323.4
2018-06-01 01:10,50.6304483333333,-96.98075,18.4,21.2,64,985.01,15.0,86,18.54,0.0,1011.35,323.4
2018-06-01 01:20,50.6304483333333,-96.9807516666667,17.4,20.5,69,985.24,14.9,86,18.55,0.0,1011.59,323.4
2018-06-01 01:30,50.6304483333333,-96.9807583333333,15.8,18.2,71,985.57,14.8,87,18.60,0.0,1011.93,323.4
2018-06-01 01:40,50.6304466666667,-96.9807516666667,16.9,19.9,73,985.59,14.8,86,18.63,0.0,1011.96,323.4
2018-06-01 01:50,50.6304416666667,-96.9807533333333,17.7,20.6,74,985.76,14.8,85,18.63,0.0,1012.12,323.4
2018-06-01 02:00,50.63043,-96.9807316666667,18.9,22.1,75,985.77,14.8,83,18.62,0.0,1012.12,137.0
2018-06-01 02:10,50.6304366666667,-96.9807683333333,17.3,20.1,74,986.03,14.8,81,18.61,0.0,1012.38,137.0
2018-06-01 02:20,50.6304416666667,-96.9807533333333,17.1,19.8,76,986.24,14.9,81,18.60,0.0,1012.60,137.0
2018-06-01 02:30,50.630445,-96.9807533333333,16.4,19.3,73,986.34,14.8,84,18.59,0.0,1012.71,137.0
2018-06-01 02:40,50.6304466666667,-96.980755,15.6,18.2,64,986.37,14.4,88,18.58,0.0,1012.77,137.0
2018-06-01 02:50,50.6304466666667,-96.980755,15.6,18.0,62,986.59,14.3,88,18.57,0.0,1013.00,137.0
2018-06-01 03:00,50.6304483333333,-96.980755,15.6,20.8,76,986.99,14.3,88,18.56,0.0,1013.40,12.6
2018-06-01 03:10,50.6304483333333,-96.9807566666667,18.7,22.2,81,987.02,14.2,83,18.53,0.0,1013.44,12.6
2018-06-01 03:20,50.6304416666667,-96.9807466666667,17.9,20.5,72,987.17,14.0,84,18.52,0.0,1013.61,12.6
2018-06-01 03:30,50.6304433333333,-96.9807416666667,18.4,21.5,73,987.34,13.9,84,18.53,0.0,1013.78,12.6
2018-06-01 03:40,50.6304633333333,-96.9807416666667,17.7,20.4,76,987.57,13.9,83,18.53,0.0,1014.02,12.6
2018-06-01 03:50,50.6304283333333,-96.9807516666667,16.6,21.1,85,987.89,13.8,81,18.51,0.0,1014.35,12.6
2018-06-01 04:00,50.6304366666667,-96.9807566666667,16.5,20.3,90,987.92,13.8,81,18.49,0.0,1014.38,143.4
2018-06-01 04:10,50.630445,-96.9807683333333,16.0,20.4,90,988.02,13.7,80,18.47,0.0,1014.49,143.4
2018-06-01 04:20,50.63044,-96.9807516666667,16.9,21.5,85,988.22,13.6,81,18.45,0.0,1014.70,143.4
2018-06-01 04:30,50.6304383333333,-96.98075,16.8,21.6,84,988.39,13.5,81,18.44,0.0,1014.90,143.4
2018-06-01 04:40,50.6304366666667,-96.9807516666667,15.7,20.2,83,988.41,13.4,82,18.45,0.0,1014.93,143.4
2018-06-01 04:50,50.6304333333333,-96.9807583333333,14.7,18.7,88,988.42,13.4,81,18.43,0.0,1014.93,143.4
2018-06-01 05:00,50.6304333333333,-96.9807566666667,15.6,19.1,79,988.50,13.4,82,18.41,0.0,1015.03,287.7
2018-06-01 05:10,50.630435,-96.9807733333333,15.1,19.2,82,988.78,13.2,82,18.40,0.0,1015.32,287.7
2018-06-01 05:20,50.6304316666667,-96.9807583333333,14.2,18.6,85,988.74,13.1,84,18.38,0.0,1015.30,287.7
2018-06-01 05:30,50.6304333333333,-96.9807583333333,15.4,19.6,89,988.75,13.2,83,18.38,0.0,1015.31,287.7
2018-06-01 05:40,50.630435,-96.98076,14.9,19.7,85,989.05,13.2,82,18.37,0.0,1015.62,287.7
2018-06-01 05:50,50.6304333333333,-96.98076,15.4,20.0,94,989.32,13.2,81,18.35,0.0,1015.90,287.7
2018-06-01 06:00,50.6304333333333,-96.98076,17.4,21.6,97,989.42,13.2,81,18.33,0.0,1016.01,161.1
2018-06-01 06:10,50.6304283333333,-96.98076,17.0,21.6,94,989.58,13.1,80,18.33,0.0,1016.17,161.1
2018-06-01 06:20,50.63043,-96.9807616666667,17.1,23.1,93,989.44,13.1,81,18.30,0.0,1016.04,161.1
2018-06-01 06:30,50.6304333333333,-96.9807666666667,16.4,21.2,96,989.50,13.1,82,18.26,0.0,1016.10,161.1
2018-06-01 06:40,50.6304316666667,-96.9807633333333,17.0,21.7,95,989.50,13.0,81,18.23,0.0,1016.10,161.1
2018-06-01 06:50,50.6304366666667,-96.98078,15.8,19.8,96,989.68,12.9,81,18.22,0.0,1016.30,161.1
2018-06-01 07:00,50.6304366666667,-96.9807616666667,15.4,18.9,94,989.54,12.9,81,18.19,0.0,1016.16,0.0
2018-06-01 07:10,50.6304366666667,-96.980765,14.6,19.0,94,989.60,12.8,82,18.18,0.0,1016.23,0.0
2018-06-01 07:20,50.630435,-96.9807616666667,14.6,18.3,95,989.65,12.8,83,18.18,0.0,1016.29,0.0
2018-06-01 07:30,50.6304333333333,-96.98076,14.1,18.2,93,989.59,12.7,83,18.17,0.0,1016.22,0.0
2018-06-01 07:40,50.6304316666667,-96.9807616666667,13.8,18.1,91,989.72,12.7,84,18.18,0.0,1016.35,0.0
2018-06-01 07:50,50.6304316666667,-96.9807616666667,14.1,17.5,93,989.84,12.6,83,18.14,0.0,1016.49,0.0
2018-06-01 08:00,50.63043,-96.9807483333333,14.4,18.5,88,989.78,12.5,84,18.12,0.0,1016.44,167.4
2018-06-01 08:10,50.6304333333333,-96.9807583333333,15.1,19.2,88,989.66,12.4,84,18.09,0.0,1016.31,167.4
2018-06-01 08:20,50.630435,-96.98076,14.6,19.0,84,989.76,12.4,85,18.08,0.0,1016.42,167.4
2018-06-01 08:30,50.6304133333333,-96.980745,14.8,19.0,85,989.77,12.3,85,18.07,0.0,1016.43,167.4
2018-06-01 08:40,50.6304316666667,-96.9807633333333,14.9,19.0,87,989.80,12.3,86,18.08,0.0,1016.47,167.4
2018-06-01 08:50,50.6304316666667,-96.9807566666667,16.0,19.5,87,989.99,12.2,85,18.05,0.0,1016.67,167.4
2018-06-01 09:00,50.6304316666667,-96.9807566666667,15.1,20.2,89,990.04,12.1,85,18.03,0.0,1016.73,0.0
2018-06-01 09:10,50.630415,-96.9807483333333,15.1,19.2,89,990.21,12.0,85,18.03,0.0,1016.91,0.0
2018-06-01 09:20,50.630425,-96.9807566666667,14.5,18.1,91,990.26,12.0,86,18.03,0.0,1016.97,0.0
2018-06-01 09:30,50.6304266666667,-96.9807533333333,15.5,19.0,89,990.36,12.0,85,18.01,0.0,1017.07,0.0
2018-06-01 09:40,50.6304283333333,-96.9807533333333,14.4,18.2,89,990.40,11.9,85,18.00,0.0,1017.12,0.0
2018-06-01 09:50,50.63043,-96.9807583333333,16.5,21.2,85,990.20,11.9,85,17.99,0.0,1016.92,0.0
2018-06-01 10:00,50.6304283333333,-96.980755,14.6,19.1,90,990.30,11.9,85,17.96,0.0,1017.03,360.0
2018-06-01 10:10,50.6304266666667,-96.980755,16.3,21.1,84,990.33,11.8,85,17.95,0.0,1017.07,360.0
2018-06-01 10:20,50.630425,-96.98075,17.7,23.0,80,990.28,11.7,85,17.94,0.0,1017.02,360.0
2018-06-01 10:30,50.6304316666667,-96.9807566666667,17.3,21.1,80,990.36,11.7,84,18.05,0.0,1017.10,360.0
2018-06-01 10:40,50.630435,-96.980755,18.2,22.0,72,990.28,11.5,84,17.88,0.0,1017.03,360.0
2018-06-01 10:50,50.6304333333333,-96.980755,18.7,21.5,76,990.36,11.5,81,17.89,0.0,1017.13,360.0
2018-06-01 11:00,50.6304316666667,-96.9807533333333,17.2,21.9,82,990.48,11.5,80,17.88,0.0,1017.25,360.0
2018-06-01 11:10,50.6304316666667,-96.980755,18.1,21.7,79,990.59,11.4,78,17.89,0.0,1017.36,360.0
2018-06-01 11:20,50.6304466666667,-96.9807683333333,19.6,24.0,83,990.54,11.3,75,17.86,0.0,1017.32,360.0
2018-06-01 11:30,50.630435,-96.9807716666667,19.5,24.0,85,990.77,11.3,73,17.82,0.0,1017.56,360.0
2018-06-01 11:40,50.630435,-96.9807716666667,15.6,21.4,91,991.19,11.2,73,17.79,0.0,1018.00,360.0
2018-06-01 11:50,50.6304366666667,-96.98077,14.8,21.8,91,991.41,11.3,73,17.76,0.0,1018.23,360.0
2018-06-01 12:00,50.6304366666667,-96.9807683333333,16.1,19.6,88,991.32,11.1,71,17.73,0.0,1018.14,311.7
2018-06-01 12:10,50.630435,-96.980765,16.2,20.7,88,991.42,11.1,71,17.71,0.0,1018.24,311.7
2018-06-01 12:20,50.630435,-96.980765,16.3,20.1,89,991.45,11.3,71,17.68,0.0,1018.27,311.7
2018-06-01 12:30,50.630435,-96.980765,15.2,19.8,89,991.53,11.3,72,17.66,0.0,1018.36,311.7
2018-06-01 12:40,50.630435,-96.9807633333333,17.3,21.1,84,991.39,11.1,72,17.65,0.0,1018.23,311.7
2018-06-01 12:50,50.630435,-96.9807633333333,16.1,20.0,86,991.32,11.1,73,17.62,0.0,1018.16,311.7
2018-06-01 13:00,50.6304366666667,-96.980765,16.3,21.1,88,991.39,11.1,71,17.64,0.0,1018.23,345.5
2018-06-01 13:10,50.6304333333333,-96.9807616666667,15.3,20.2,90,991.59,11.1,72,17.67,0.0,1018.45,345.5
2018-06-01 13:20,50.6304333333333,-96.9807616666667,14.3,20.1,89,991.69,11.1,72,17.65,0.0,1018.55,345.5
2018-06-01 13:30,50.6304316666667,-96.98076,14.9,19.2,84,991.77,11.1,71,17.63,0.0,1018.63,345.5
2018-06-01 13:40,50.630415,-96.9807716666667,13.7,17.6,91,991.80,11.2,70,17.64,0.0,1018.66,345.5
2018-06-01 13:50,50.630425,-96.98076,12.9,16.4,89,991.99,11.3,69,17.65,0.0,1018.85,345.5
2018-06-01 14:00,50.630425,-96.9807616666667,13.6,17.4,84,991.96,11.3,70,17.63,0.0,1018.82,228.3
2018-06-01 14:10,50.6304266666667,-96.9807616666667,15.8,20.1,77,991.96,11.2,70,17.60,0.0,1018.82,228.3
2018-06-01 14:20,50.630425,-96.9807583333333,15.2,18.5,80,992.11,11.2,69,17.58,0.0,1018.96,228.3
2018-06-01 14:30,50.6304266666667,-96.9807583333333,13.4,18.6,84,992.11,11.3,67,17.53,0.0,1018.98,228.3
2018-06-01 14:40,50.6304283333333,-96.9807583333333,14.6,18.7,83,992.01,11.4,68,17.56,0.0,1018.87,228.3
2018-06-01 14:50,50.6304283333333,-96.98076,13.5,19.2,90,992.04,11.5,68,17.55,0.0,1018.89,228.3
2018-06-01 15:00,50.63043,-96.9807616666667,12.5,16.9,91,992.28,11.7,68,17.50,0.0,1019.13,165.5
2018-06-01 15:10,50.6304316666667,-96.980795,12.2,16.0,95,992.43,11.9,68,17.49,0.0,1019.28,165.5
2018-06-01 15:20,50.6304383333333,-96.9807616666667,11.0,14.6,95,992.48,12.1,68,17.52,0.0,1019.32,165.5
2018-06-01 15:30,50.6304366666667,-96.9807616666667,12.6,16.9,97,992.39,12.3,69,17.53,0.0,1019.21,165.5
2018-06-01 15:40,50.6304266666667,-96.9807716666667,12.4,15.5,94,992.40,12.4,68,17.50,0.0,1019.21,165.5
2018-06-01 15:50,50.630425,-96.9807683333333,12.7,16.1,97,992.46,12.6,68,17.47,0.0,1019.27,165.5
2018-06-01 16:00,50.6304283333333,-96.980765,11.6,14.4,98,992.52,12.7,66,17.46,0.0,1019.33,360.0
2018-06-01 16:10,50.6304283333333,-96.9807633333333,12.2,16.0,99,992.56,12.8,67,17.42,0.0,1019.36,360.0
2018-06-01 16:20,50.63043,-96.9807616666667,12.4,15.7,94,992.36,12.8,68,17.40,0.0,1019.15,360.0
2018-06-01 16:30,50.6304316666667,-96.9807633333333,13.2,16.9,96,992.31,13.0,68,17.42,0.0,1019.09,360.0
2018-06-01 16:40,50.6304316666667,-96.9807633333333,13.2,17.5,97,992.22,13.2,68,17.42,0.0,1018.97,360.0
2018-06-01 16:50,50.6304316666667,-96.9807616666667,12.6,15.2,93,991.99,13.3,68,17.45,0.0,1018.73,360.0
2018-06-01 17:00,50.6304316666667,-96.98076,13.8,18.0,87,991.88,13.4,67,17.45,0.0,1018.61,38.0
2018-06-01 17:10,50.6304316666667,-96.9807616666667,15.9,18.4,81,991.95,13.3,68,17.45,0.0,1018.68,38.0
2018-06-01 17:20,50.6304316666667,-96.9807616666667,14.7,18.4,83,991.94,13.4,70,17.40,0.0,1018.65,38.0
2018-06-01 17:30,50.6304316666667,-96.9807633333333,13.9,19.5,84,991.95,13.6,72,17.36,0.0,1018.65,38.0
2018-06-01 17:40,50.6304316666667,-96.9807633333333,15.8,20.6,88,991.85,13.7,70,17.37,0.0,1018.52,38.0
2018-06-01 17:50,50.6304316666667,-96.9807633333333,13.6,17.7,91,991.89,13.8,71,17.33,0.0,1018.56,38.0
2018-06-01 18:00,50.63043,-96.9807633333333,13.9,19.8,93,991.76,13.8,71,17.32,0.0,1018.42,270.0
2018-06-01 18:10,50.63043,-96.9807633333333,14.9,19.2,92,991.58,13.8,71,17.33,0.0,1018.23,270.0
2018-06-01 18:20,50.6304316666667,-96.9807633333333,15.2,18.6,94,991.43,13.9,71,17.30,0.0,1018.07,270.0
2018-06-01 18:30,50.6304316666667,-96.9807616666667,16.5,20.6,96,991.52,13.9,70,17.28,0.0,1018.15,270.0
2018-06-01 18:40,50.6304316666667,-96.9807633333333,17.8,21.3,99,991.29,14.1,70,17.27,0.0,1017.90,270.0
2018-06-01 18:50,50.6304316666667,-96.9807633333333,16.8,20.1,89,990.76,14.2,70,17.27,0.0,1017.35,270.0
2018-06-01 19:00,50.6304316666667,-96.9807633333333,16.2,19.6,88,990.55,14.1,72,17.26,0.0,1017.14,360.0
2018-06-01 19:10,50.6304316666667,-96.9807633333333,18.8,23.9,87,990.56,14.0,70,17.27,0.0,1017.15,360.0
2018-06-01 19:20,50.6304333333333,-96.9807616666667,16.2,20.1,91,990.82,14.1,71,17.29,0.0,1017.40,360.0
2018-06-01 19:30,50.6304333333333,-96.9807616666667,16.1,21.6,92,990.87,14.1,72,17.28,0.0,1017.45,360.0
2018-06-01 19:40,50.6304333333333,-96.9807616666667,14.8,18.2,98,991.01,14.1,73,17.25,0.0,1017.59,360.0
2018-06-01 19:50,50.6304333333333,-96.9807616666667,15.6,19.7,95,990.71,14.0,74,17.23,0.0,1017.29,360.0
2018-06-01 20:00,50.630445,-96.98082,15.5,19.4,95,990.66,14.1,72,17.24,0.0,1017.24,285.1
2018-06-01 20:10,50.6304416666667,-96.9807716666667,17.2,21.9,99,990.67,14.3,71,17.23,0.0,1017.22,285.1
2018-06-01 20:20,50.6304433333333,-96.9807666666667,18.0,22.1,98,990.54,14.5,70,17.24,0.0,1017.08,285.1
2018-06-01 20:30,50.6304366666667,-96.9807633333333,19.9,23.9,101,990.42,14.6,69,17.26,0.0,1016.94,285.1
2018-06-01 20:40,50.6304383333333,-96.9807633333333,18.9,23.4,98,990.34,14.6,69,17.26,0.0,1016.86,285.1
2018-06-01 20:50,50.630435,-96.98076,15.9,21.0,106,990.87,14.5,69,17.22,0.0,1017.41,285.1
2018-06-01 21:00,50.6304333333333,-96.9807583333333,14.8,17.5,99,990.61,14.5,70,17.21,0.0,1017.15,12.6
2018-06-01 21:10,50.630435,-96.98076,15.0,19.1,95,990.17,14.6,70,17.23,0.0,1016.69,12.6
2018-06-01 21:20,50.6304333333333,-96.9807616666667,14.0,17.7,94,990.16,14.7,70,17.22,0.0,1016.68,12.6
2018-06-01 21:30,50.6304333333333,-96.98076,14.0,16.8,93,990.08,14.8,70,17.22,0.0,1016.59,12.6
2018-06-01 21:40,50.6304333333333,-96.98076,14.1,17.5,94,990.11,14.9,70,17.26,0.0,1016.61,12.6
2018-06-01 21:50,50.630435,-96.9807616666667,15.4,18.9,92,989.98,15.0,70,17.26,0.0,1016.48,12.6
2018-06-01 22:00,50.6304333333333,-96.98075,15.0,19.0,92,989.85,15.0,70,17.19,0.0,1016.33,90.0
2018-06-01 22:10,50.630425,-96.9807483333333,14.5,18.4,94,989.80,15.0,71,17.19,0.0,1016.27,90.0
2018-06-01 22:20,50.63043,-96.98076,14.7,17.9,92,989.53,15.0,70,17.17,0.0,1015.99,90.0
2018-06-01 22:30,50.6304383333333,-96.98076,14.7,19.0,93,989.34,15.1,71,17.16,0.0,1015.80,90.0
2018-06-01 22:40,50.6304366666667,-96.9807616666667,15.6,19.4,92,988.84,15.1,72,17.14,0.0,1015.28,90.0
2018-06-01 22:50,50.6304383333333,-96.9807616666667,18.4,22.3,91,988.10,15.0,72,17.14,0.0,1014.53,90.0
2018-06-01 23:00,50.6304283333333,-96.98075,17.2,22.6,91,988.05,15.0,72,17.13,0.0,1014.47,110.3
2018-06-01 23:10,50.6304333333333,-96.98078,16.5,22.4,90,988.11,15.0,72,17.10,0.0,1014.52,110.3
2018-06-01 23:20,50.6304433333333,-96.9807683333333,15.9,19.8,91,988.10,15.1,71,17.13,0.0,1014.50,110.3
2018-06-01 23:30,50.63044,-96.9807683333333,15.0,19.0,92,988.23,15.1,71,17.11,0.0,1014.63,110.3
2018-06-01 23:40,50.6304416666667,-96.98077,14.8,18.4,89,988.46,15.1,70,17.09,0.0,1014.87,110.3
